STARLINK-11269, 60995

Orbit data source: Space-Track

STARLINK-11269, 60995 is a payload satellite owned by SpaceX/Seattle (US) in LEO that was launched on Thu, 05 Sep 2024 UTC via an FALCON 9 launch vehicle from the Air Force Eastern Test Range (AFETR). Payload-class satellites include a variety of spacecraft equipped with specific instruments for various scientific and technological missions. These include communications satellites like Starlink; space stations such as the ISS; scientific satellites like the Hubble; Earth observation satellites from companies like Planet Labs, Umbra, and HawkEye 360; GPS; miniature CubeSats for education and research; and military/defense satellites.

Loading next visibility...
Identifier
60995, 2024-158F
Orbit
LEO
Country
Flag of USUS
Related business
Manufacturer
SpaceX/Seattle
Mission
Operational Commercial Communications
Bus & Motor
STARLINK V2MD, Unknown motor
Mass
960 kg wet, ~910 kg dry
Launch date (UTC)
2024-09-05 (1 year ago)
Launch vehicle
FALCON 9
Launch site
Air Force Eastern Test Range (AFETR)
Object type
Payload
Rocket body
Debris
Shape & HBR
Box + 2 Pan, 18.1 m
Radar Cross Section
36.964 m², Large (>1 m²)

Expand to show TLE details & history
Last TLE update: 5 hours ago

TLE from 5 hours ago
0 STARLINK-11269
1 60995U 24158F   26035.15062256 -.00000643  00000-0 -45467-6 0  9999
2 60995  53.1579  86.8373 0000934 115.1170 244.9945 15.69705967 82314
Epoch: 2026-02-04T03:36Z
TLE epoch observation values (Epoch: 2026-02-04T03:36:53.789Z)
Latitude
Longitude
-101.70815°
Altitude
360.919 km
Speed
7.694 km/s
True Right ascension
05h 47m 20s
True Declination
0° 00' 00"
Sunlit
Object was in full shadow at epoch
Visualization orbit readout
Latitude
Unknown
Longitude
Unknown
Altitude
Unknown
Speed
Unknown
Apparent Right ascension
Unknown
Apparent Declination
Unknown
Sunlit
N/A
Visualization observer readout
Local Sidereal Time
10:22:03
Azimuth
Unknown
Elevation
Unknown
Doppler factor
Unknown
Orbital elements
Apogee altitude
360.629 km
Perigee altitude
359.37 km
Semi-major axis
6,738.136 km
Eccentricity
0.00009
Inclination
53.1579°
RAAN
86.8373°
Arg. of periapsis
115.117°
True anomaly
244.9848°
Mean anomaly
244.9945°
Eccentric anomaly
244.98965°
Mean motion
3.92404 °/min
Orbital period
91.74 mins
BSTAR
-4.5467e-7
Loading maneuver chart data...
Computing Atmospheric mass density...
Loading historical data...
Loading historical data...
Loading historical data...
Loading historical data...
Loading historical data...
Loading historical data...
Loading historical data...

Documentation

Showing up to 5 results
|